Wind_Speed
5 6 7 6 7 7 10 13 14 16 18 17 14 12 11 9 6 4 1 3 5 7 8 9 9 8 7 7 7 9 10 14 15 16 17 18 23 24 18 19 21 23 20 24 25
6 6 6 7 7 8 12 14 14 16 17 16 13 9 9 9 5 3 6 7 7 9 10 11 12 12 8 13 12 12 11 14 15 16 17 17 24 17 26 24 24 22 24 21 23
6 6 6 7 8 10 14 15 15 16 16 15 11 9 8 7 4 10 11 10 10 10 11 12 11 11 12 14 15 14 16 14 18 20 21 21 24 24 25 26 22 23 23 24 25
6 6 7 7 8 12 16 17 16 15 14 13 11 10 9 7 2 11 14 12 9 11 11 11 10 11 12 12 16 18 15 18 19 21 21 21 24 25 27 21 19 24 22 31 22
6 5 6 7 9 14 17 16 16 15 14 13 12 12 10 7 10 14 12 14 13 11 11 12 11 11 12 12 18 18 16 18 19 20 21 22 21 25 23 19 18 19 21 25 24
5 4 4 6 10 15 16 15 15 14 14 13 14 14 12 10 16 16 16 15 14 12 13 12 12 13 14 14 15 18 19 20 21 19 18 21 22 26 15 16 16 18 17 20 23
6 5 5 7 10 14 15 16 15 14 14 16 16 16 15 15 16 16 17 17 16 15 15 14 13 12 14 15 14 19 22 19 14 10 22 22 29 20 15 19 20 22 24 25 25
6 5 6 6 8 12 14 14 13 14 16 17 18 16 17 18 17 18 17 16 15 15 14 14 13 13 12 14 18 17 13 7 13 22 20 23 34 18 17 23 25 25 28 31 29
7 6 6 6 7 8 10 12 13 15 17 18 17 17 16 14 15 15 15 15 14 13 14 14 14 14 13 13 13 12 11 15 15 20 24 27 35 23 22 26 25 25 26 29 32
7 8 8 8 9 7 7 9 10 12 14 15 14 13 14 14 10 10 11 13 13 13 16 14 14 13 12 8 13 16 20 20 20 17 29 32 36 28 25 24 22 21 23 25 29
9 8 9 9 8 9 8 7 9 12 15 13 10 10 15 12 11 11 12 13 14 15 13 17 13 12 12 15 16 17 19 21 21 22 27 30 36 23 9 11 14 14 15 20 25
11 11 11 10 11 9 9 10 12 12 15 13 15 17 19 18 18 18 16 15 15 10 11 15 14 15 16 16 20 15 17 18 19 20 30 29 30 6 9 14 13 11 11 11 13
12 12 13 12 10 10 11 12 11 12 16 17 16 17 17 16 16 17 11 12 12 11 13 16 14 20 18 12 15 14 16 18 19 24 23 21 15 5 6 8 11 13 13 12 12
13 13 13 11 11 11 11 10 10 9 9 11 9 9 13 12 12 11 11 10 11 8 9 12 10 10 14 17 14 16 13 17 19 16 11 16 9 5 5 6 10 15 15 16 14
13 12 11 13 12 10 8 9 8 7 5 6 7 5 5 9 3 4 5 7 8 9 11 10 17 18 17 13 12 11 14 18 21 17 14 2 6 4 8 4 7 10 17 18 18
14 12 13 12 9 9 9 9 9 4 6 5 5 5 6 6 6 5 7 8 9 10 11 10 15 14 14 11 6 15 16 17 12 4 5 5 3 11 6 7 7 13 15 16 17
14 12 12 10 9 9 8 8 4 8 5 4 5 6 6 6 7 7 9 8 2 6 4 10 9 6 6 6 15 10 11 8 6 5 4 6 8 22 15 13 16 16 17 22 27
13 12 11 11 11 9 9 9 9 6 4 4 4 4 4 5 9 9 5 4 9 9 8 5 7 6 4 14 10 12 4 7 6 8 16 11 8 4 7 20 7 17 24 25 32
13 12 14 13 13 12 12 11 5 5 8 6 5 5 6 7 7 5 7 7 9 4 4 7 6 9 18 13 9 6 5 10 13 19 10 11 11 16 13 2 12 23 21 30 40
14 13 13 14 15 15 15 14 12 12 10 7 5 7 6 6 4 4 5 8 9 7 7 8 12 13 14 12 12 11 15 7 6 5 9 12 20 19 16 16 24 25 27 37 44
14 14 14 15 15 16 19 13 16 17 15 12 11 10 9 7 9 9 6 9 12 14 7 6 9 10 15 12 9 13 9 6 9 11 7 12 9 7 19 30 25 27 31 39 36
17 19 16 17 19 21 20 21 19 18 15 16 17 16 11 8 7 8 10 9 8 9 10 10 9 15 16 19 19 18 17 15 16 16 17 24 37 20 13 18 24 29 30 28 34
21 20 16 17 21 23 23 20 18 20 17 17 15 13 13 12 7 9 10 13 13 13 6 6 5 12 8 13 10 10 7 13 18 23 30 23 28 34 29 34 36 34 29 36 27
22 19 23 24 25 22 19 20 22 19 17 18 19 17 15 16 15 9 12 12 12 14 14 17 16 19 22 25 25 28 26 24 23 28 36 37 51 39 36 40 38 33 32 24 31
27 26 27 16 27 26 25 20 18 20 21 19 20 19 16 11 12 16 15 18 19 21 22 19 18 20 23 26 27 30 33 31 32 37 37 50 43 43 35 28 28 27 29 37 41
31 32 30 30 26 21 22 28 26 22 21 19 18 17 16 18 14 10 14 14 13 15 17 22 21 18 27 28 28 31 34 31 32 31 32 33 34 23 23 24 32 36 37 35 41
33 33 31 30 29 28 26 25 24 21 25 23 21 21 21 20 24 26 26 24 24 23 17 16 16 19 26 13 18 24 15 11 16 18 21 28 27 24 34 37 37 36 42 43 46
Wind_Direction
217 213 229 226 223 218 192 177 166 164 166 166 158 156 158 159 157 163 127 280 308 324 332 333 339 333 324 310 293 279 271 272 281 284 286 286 283 293 291 285 283 282 279 276 280
233 233 238 236 224 212 189 179 174 172 172 172 171 169 172 173 187 222 254 274 293 314 323 326 323 321 317 309 302 292 271 277 284 276 284 281 288 284 290 293 285 286 282 278 272
240 249 246 242 225 200 187 182 177 180 178 178 186 189 194 192 219 247 260 272 293 309 318 318 306 304 305 298 300 297 288 282 281 288 292 291 290 291 289 285 290 286 286 272 271
241 250 251 233 214 190 182 184 184 183 185 188 200 208 209 205 243 261 259 274 291 308 312 316 308 307 299 281 293 297 300 292 299 296 296 297 295 294 288 301 281 276 278 278 277
256 239 230 216 197 184 183 187 191 191 194 205 214 220 225 237 254 254 268 280 290 299 306 310 304 297 295 282 299 299 306 301 302 303 303 300 304 298 304 304 284 274 274 275 281
248 222 193 191 181 185 184 191 201 201 209 220 227 234 239 252 260 270 274 281 290 291 300 300 293 292 290 293 295 295 302 305 302 302 303 307 304 303 326 297 291 280 282 276 279
208 183 178 186 181 190 193 198 207 214 223 232 239 244 250 253 255 267 273 279 284 286 294 297 292 290 293 302 301 305 304 309 300 311 310 309 305 307 313 298 294 283 282 280 277
190 192 181 180 185 197 205 211 215 226 237 244 248 254 261 261 265 269 274 277 282 287 291 293 291 288 291 299 303 307 303 316 307 307 310 312 305 303 297 294 298 288 284 283 278
189 199 199 192 193 200 212 222 230 238 245 251 255 260 265 276 264 264 265 272 279 287 291 292 289 289 297 302 301 264 291 302 309 308 306 311 309 327 303 298 295 285 276 273 278
199 211 210 208 210 210 221 229 235 244 249 250 251 257 259 262 265 260 267 276 283 289 300 292 289 294 297 284 286 302 296 296 299 307 301 309 308 328 319 295 295 294 285 278 269
215 214 218 212 219 224 229 246 260 258 250 245 237 230 252 262 259 264 273 282 286 293 292 286 284 274 284 275 278 287 291 293 303 298 297 312 311 338 358 355 324 307 303 287 276
222 223 226 221 224 231 238 245 249 253 275 263 254 254 256 260 265 267 270 276 284 284 261 278 286 276 274 284 294 296 292 298 306 310 309 319 322 43 19 357 7 8 358 331 298
228 228 233 234 231 235 241 247 254 265 272 274 259 253 254 252 257 262 266 273 276 273 263 268 277 284 291 292 298 298 291 296 294 310 322 312 333 353 355 11 12 11 9 349 339
224 224 226 231 235 232 238 245 257 272 272 265 245 253 242 238 256 260 261 266 278 279 270 280 278 290 294 297 296 295 285 301 307 314 311 318 297 320 7 40 25 15 4 3 349
219 224 226 230 229 229 237 243 248 241 269 236 222 233 213 194 217 246 254 275 275 265 283 279 289 299 298 289 300 289 306 309 302 294 301 249 261 253 309 9 34 10 342 340 342
217 216 221 221 217 221 228 230 221 227 242 228 200 211 199 213 235 264 287 291 291 286 295 291 290 293 294 304 314 317 317 309 305 279 249 172 242 289 270 352 331 344 334 328 323
216 214 217 215 221 226 224 215 212 236 252 230 214 207 209 234 255 274 293 290 262 309 281 303 307 307 298 318 324 329 325 306 217 211 302 248 275 270 274 279 304 321 334 317 315
225 224 230 227 227 226 220 198 234 251 214 199 194 212 219 255 273 280 272 282 278 278 286 289 279 292 272 312 300 303 310 298 302 306 307 282 252 282 273 315 287 325 322 309 307
229 227 231 230 226 223 212 218 250 235 243 232 246 258 245 253 232 275 274 253 256 217 254 299 272 273 291 294 298 278 286 270 284 279 275 248 279 294 299 311 329 306 303 306 318
233 232 231 230 227 223 217 224 228 244 246 242 230 225 224 228 260 262 267 257 260 241 242 277 287 282 292 287 285 266 283 288 234 287 294 291 299 274 287 283 317 300 305 311 314
237 236 232 227 225 224 228 236 249 249 251 246 245 245 244 240 249 258 255 264 257 276 247 258 266 286 294 289 269 287 281 271 264 267 285 301 280 321 292 290 294 309 314 310 305
233 233 228 226 223 227 232 242 256 253 247 248 251 251 243 247 258 252 251 238 269 264 283 265 262 275 276 281 286 280 270 262 258 280 268 287 289 304 284 302 308 312 308 310 306
225 231 231 226 224 237 243 251 251 250 246 248 248 249 253 251 246 237 259 265 259 259 249 261 268 299 293 286 289 294 285 285 273 277 271 276 266 294 298 298 302 303 305 303 296
231 232 232 233 236 237 242 245 246 246 247 246 252 254 257 257 253 249 261 263 260 265 269 274 272 262 272 279 288 290 284 281 277 275 282 273 287 297 300 300 299 297 300 300 299
231 232 233 236 239 239 240 242 245 247 247 250 252 252 255 247 249 252 258 263 270 273 275 277 270 275 276 277 280 283 281 279 271 271 273 283 289 298 305 296 299 305 305 306 307
234 233 236 240 245 240 237 242 247 244 247 246 245 255 249 251 244 252 260 268 264 275 274 275 278 288 283 284 285 284 277 275 272 274 274 284 289 302 294 289 294 298 302 301 302
237 239 237 243 243 242 242 243 250 244 252 248 254 248 256 253 252 262 268 269 266 271 265 271 286 299 289 297 300 289 289 272 278 276 284 285 292 289 284 294 300 307 312 308 307
Height
3157 3157 3159 3159 3160 3161 3162 3163 3165 3167 3169 3172 3173 3174 3176 3177 3178 3179 3180 3181 3180 3179 3179 3178 3178 3177 3177 3177 3177 3177 3178 3176 3176 3175 3173 3170 3167 3164 3164 3163 3161 3160 3160 3158 3156
3158 3157 3158 3158 3159 3160 3162 3164 3166 3169 3170 3172 3174 3175 3176 3177 3179 3180 3181 3180 3179 3179 3178 3177 3177 3176 3176 3175 3174 3174 3175 3174 3173 3170 3168 3166 3163 3163 3158 3158 3156 3155 3153 3153 3152
3157 3157 3157 3158 3158 3159 3162 3164 3167 3170 3171 3173 3175 3176 3177 3178 3179 3180 3179 3179 3178 3178 3177 3176 3176 3175 3175 3174 3173 3171 3169 3171 3168 3165 3163 3161 3158 3156 3154 3151 3153 3150 3148 3147 3147
3156 3156 3156 3156 3157 3158 3161 3164 3167 3170 3172 3173 3176 3177 3177 3178 3183 3178 3178 3178 3177 3176 3176 3175 3174 3173 3173 3173 3170 3167 3167 3165 3163 3161 3158 3156 3153 3151 3148 3147 3147 3145 3145 3140 3143
3155 3155 3155 3155 3156 3158 3161 3164 3167 3169 3171 3174 3175 3176 3177 3179 3179 3177 3177 3176 3176 3175 3174 3173 3172 3172 3171 3170 3168 3164 3163 3162 3159 3157 3154 3151 3149 3145 3143 3143 3141 3140 3139 3138 3137
3154 3154 3154 3155 3156 3159 3161 3164 3167 3168 3171 3173 3175 3175 3176 3178 3175 3175 3174 3174 3174 3172 3172 3172 3170 3169 3168 3166 3165 3163 3160 3158 3155 3153 3150 3147 3145 3141 3140 3137 3136 3135 3134 3133 3131
3154 3154 3154 3156 3156 3159 3161 3163 3166 3167 3169 3172 3173 3173 3173 3175 3171 3172 3172 3171 3171 3170 3169 3169 3167 3166 3165 3163 3161 3160 3156 3154 3152 3151 3148 3144 3138 3135 3136 3134 3132 3130 3129 3128 3127
3152 3153 3154 3155 3156 3159 3161 3163 3163 3165 3168 3170 3171 3170 3169 3169 3169 3169 3169 3168 3168 3167 3167 3166 3165 3163 3163 3161 3158 3156 3155 3153 3151 3149 3144 3142 3130 3135 3134 3130 3127 3125 3124 3121 3121
3151 3152 3155 3155 3157 3158 3160 3161 3162 3164 3166 3168 3168 3167 3167 3165 3165 3166 3166 3166 3165 3164 3164 3164 3163 3161 3160 3159 3158 3155 3155 3153 3152 3146 3143 3138 3127 3129 3128 3124 3120 3118 3117 3116 3114
3151 3153 3154 3155 3156 3157 3159 3160 3161 3162 3164 3165 3164 3167 3163 3163 3163 3163 3164 3163 3162 3161 3161 3162 3160 3158 3158 3159 3157 3154 3152 3150 3149 3148 3137 3133 3125 3122 3122 3118 3113 3112 3110 3108 3108
3151 3152 3154 3154 3155 3157 3158 3158 3162 3162 3162 3162 3161 3160 3160 3161 3161 3161 3161 3161 3160 3159 3160 3161 3159 3159 3159 3157 3155 3151 3149 3147 3145 3141 3136 3131 3121 3119 3116 3114 3111 3108 3106 3104 3103
3150 3151 3153 3154 3154 3155 3155 3156 3159 3161 3159 3157 3156 3157 3157 3157 3158 3158 3159 3159 3157 3157 3159 3160 3156 3156 3153 3152 3151 3148 3147 3144 3142 3137 3131 3126 3118 3117 3115 3113 3110 3106 3103 3100 3098
3148 3150 3151 3152 3152 3153 3154 3157 3157 3157 3157 3153 3152 3152 3153 3155 3154 3155 3156 3154 3155 3155 3157 3155 3156 3151 3150 3149 3147 3146 3144 3142 3139 3134 3129 3123 3117 3117 3116 3113 3109 3105 3102 3098 3096
3146 3147 3149 3150 3152 3151 3153 3155 3155 3155 3155 3152 3149 3149 3149 3151 3151 3151 3151 3153 3152 3153 3154 3152 3150 3149 3147 3146 3145 3142 3140 3137 3135 3133 3131 3127 3121 3116 3115 3114 3109 3105 3102 3099 3096
3143 3144 3146 3148 3149 3150 3152 3152 3153 3156 3155 3149 3146 3147 3147 3149 3151 3150 3150 3150 3150 3152 3152 3152 3148 3146 3144 3144 3142 3142 3137 3135 3131 3129 3128 3124 3125 3115 3114 3112 3110 3106 3101 3100 3097
3141 3142 3144 3146 3145 3148 3149 3151 3154 3156 3148 3146 3145 3145 3147 3147 3148 3148 3148 3148 3149 3148 3147 3146 3144 3143 3142 3141 3140 3138 3134 3130 3127 3127 3126 3122 3123 3111 3111 3109 3107 3103 3100 3097 3095
3139 3140 3142 3142 3145 3146 3147 3150 3153 3149 3146 3145 3144 3144 3146 3146 3146 3146 3146 3146 3148 3148 3146 3145 3141 3140 3139 3139 3138 3136 3135 3128 3124 3125 3118 3119 3119 3109 3109 3106 3104 3100 3097 3094 3092
3135 3136 3138 3140 3142 3143 3146 3149 3149 3144 3144 3142 3143 3144 3145 3145 3145 3145 3145 3145 3144 3145 3144 3144 3140 3139 3139 3139 3138 3136 3136 3134 3127 3119 3118 3118 3113 3108 3105 3104 3101 3097 3095 3091 3088
3133 3134 3136 3138 3140 3142 3145 3146 3143 3142 3141 3142 3142 3143 3145 3143 3145 3144 3142 3143 3142 3142 3145 3142 3140 3138 3137 3135 3136 3133 3134 3132 3129 3121 3119 3112 3110 3107 3103 3102 3102 3095 3092 3087 3083
3131 3132 3133 3135 3137 3139 3141 3140 3139 3139 3140 3140 3142 3143 3143 3142 3143 3142 3141 3140 3139 3139 3139 3141 3139 3134 3134 3133 3132 3131 3131 3129 3127 3121 3111 3104 3104 3099 3101 3101 3095 3089 3086 3083 3079
3127 3128 3131 3133 3134 3135 3135 3136 3134 3136 3137 3139 3139 3139 3140 3140 3139 3140 3139 3138 3136 3136 3136 3138 3138 3134 3131 3129 3129 3128 3126 3126 3126 3123 3114 3105 3100 3098 3099 3096 3093 3088 3082 3080 3075
3123 3125 3127 3128 3130 3129 3129 3130 3131 3132 3133 3134 3134 3135 3136 3136 3135 3136 3136 3135 3133 3134 3134 3134 3133 3130 3128 3125 3123 3121 3122 3124 3122 3117 3113 3108 3091 3093 3095 3093 3091 3086 3078 3075 3071
3118 3120 3122 3123 3123 3123 3124 3125 3126 3128 3128 3129 3130 3129 3130 3131 3132 3130 3131 3130 3130 3131 3131 3130 3130 3127 3123 3123 3119 3118 3119 3118 3117 3114 3107 3106 3089 3092 3093 3090 3086 3076 3072 3069 3064
3115 3116 3116 3116 3117 3119 3120 3120 3122 3123 3124 3125 3124 3125 3126 3126 3126 3127 3127 3126 3127 3127 3127 3126 3126 3125 3122 3119 3119 3116 3115 3114 3112 3106 3098 3095 3079 3087 3085 3079 3074 3069 3066 3062 3058
3107 3108 3109 3110 3111 3113 3115 3116 3117 3117 3119 3120 3119 3120 3122 3123 3123 3122 3124 3123 3123 3122 3122 3122 3119 3119 3117 3114 3111 3108 3104 3103 3101 3096 3095 3078 3082 3078 3076 3069 3065 3063 3058 3053 3050
3101 3102 3104 3104 3106 3109 3109 3109 3111 3113 3114 3114 3115 3116 3118 3118 3120 3120 3119 3119 3119 3116 3116 3116 3113 3112 3108 3106 3103 3098 3092 3092 3089 3086 3083 3080 3076 3076 3067 3063 3059 3057 3051 3047 3043
3092 3095 3098 3098 3100 3103 3103 3104 3105 3108 3107 3108 3110 3112 3113 3113 3111 3112 3112 3113 3113 3111 3112 3112 3110 3109 3096 3099 3097 3091 3082 3082 3081 3080 3079 3074 3072 3070 3061 3057 3053 3050 3044 3039 3034